Tracking 18980 objects as of 22-Feb-2018
HD Live streaming from Space Station
objects crossing your sky now

ASTRO H DEB

Track ASTRO H DEB now!
10-day predictions


NORAD ID: 41442
Int'l Code: 2016-012L
Perigee: 562.7 km
Apogee: 581.4 km
Inclination: 31.0 °
Period: 96.0 minutes
Semi major axis: 6943 km
RCS: Unknown
Launch date: February 17, 2016
Source: Japan (JPN)
Launch site: TANEGASHIMA SPACE CENTER (TNSTA)

Note: This is SATELLITE DEBRIS
aabbcc
Your satellite tracking list
Your tracking list is empty




NASA's NSSDC Master Catalog

Two Line Element Set (TLE):
1 41442U 16012L   18053.18832710  .00000823  00000-0  56799-4 0  9995
2 41442  31.0103 323.5804 0013428 353.2905   6.7549 15.00638895110564
Source of the keplerian elements: AFSPC